Radiation Dose at Monitoring Post of Fukushima Daini Nuclear Power Station
Date,Time,MP-1(microSv/h),MP-2(microSv/h),MP-3(microSv/h),MP-4(microSv/h),MP-5(microSv/h),MP-6(microSv/h),MP-7(microSv/h),Wind Direction,Wind Velocity(m/s),Rain
2021/11/10,00:00,0.156,0.146,0.221,0.218,0.228,0.122,0.082,-,-,Yes
2021/11/10,00:10,0.156,0.146,0.222,0.220,0.228,0.122,0.082,-,-,Yes
2021/11/10,00:20,0.157,0.147,0.221,0.218,0.227,0.121,0.082,-,-,Yes
2021/11/10,00:30,0.155,0.145,0.219,0.218,0.226,0.121,0.081,-,-,Yes
2021/11/10,00:40,0.157,0.144,0.220,0.218,0.226,0.120,0.080,-,-,Yes
2021/11/10,00:50,0.154,0.144,0.219,0.216,0.226,0.119,0.081,-,-,Yes
2021/11/10,01:00,0.154,0.143,0.218,0.217,0.224,0.120,0.079,-,-,Yes
2021/11/10,01:10,0.153,0.142,0.219,0.215,0.226,0.118,0.078,-,-,Yes
2021/11/10,01:20,0.153,0.140,0.218,0.215,0.222,0.119,0.078,-,-,Yes
2021/11/10,01:30,0.153,0.141,0.218,0.214,0.224,0.117,0.079,-,-,Yes
2021/11/10,01:40,0.154,0.140,0.219,0.215,0.222,0.117,0.079,-,-,No
2021/11/10,01:50,0.153,0.139,0.218,0.214,0.224,0.118,0.078,-,-,No
2021/11/10,02:00,0.153,0.141,0.217,0.214,0.222,0.117,0.078,-,-,No
2021/11/10,02:10,0.153,0.139,0.216,0.215,0.224,0.118,0.077,-,-,No
2021/11/10,02:20,0.153,0.141,0.217,0.214,0.220,0.119,0.077,-,-,No
2021/11/10,02:30,0.152,0.140,0.216,0.215,0.224,0.117,0.076,-,-,No
2021/11/10,02:40,0.151,0.141,0.218,0.214,0.221,0.117,0.077,-,-,No
2021/11/10,02:50,0.152,0.140,0.217,0.215,0.222,0.116,0.076,-,-,Yes
2021/11/10,03:00,0.153,0.140,0.219,0.216,0.223,0.118,0.078,-,-,Yes
2021/11/10,03:10,0.156,0.142,0.220,0.217,0.225,0.120,0.079,-,-,Yes
2021/11/10,03:20,0.157,0.145,0.223,0.220,0.229,0.121,0.080,-,-,Yes
2021/11/10,03:30,0.161,0.148,0.225,0.221,0.229,0.124,0.082,-,-,Yes
2021/11/10,03:40,0.161,0.149,0.226,0.224,0.231,0.123,0.083,-,-,Yes
2021/11/10,03:50,0.162,0.150,0.228,0.224,0.231,0.126,0.085,-,-,Yes
2021/11/10,04:00,0.163,0.150,0.228,0.223,0.231,0.126,0.086,-,-,Yes
2021/11/10,04:10,0.162,0.151,0.227,0.224,0.231,0.126,0.085,-,-,Yes
2021/11/10,04:20,0.162,0.149,0.227,0.221,0.231,0.127,0.086,-,-,Yes
2021/11/10,04:30,0.161,0.149,0.224,0.222,0.230,0.126,0.085,-,-,Yes
2021/11/10,04:40,0.161,0.147,0.224,0.220,0.229,0.124,0.085,-,-,Yes
2021/11/10,04:50,0.160,0.147,0.224,0.220,0.228,0.124,0.084,-,-,Yes
2021/11/10,05:00,0.158,0.145,0.222,0.219,0.227,0.122,0.082,-,-,Yes
2021/11/10,05:10,0.158,0.144,0.221,0.218,0.225,0.122,0.082,-,-,Yes
2021/11/10,05:20,0.156,0.143,0.221,0.217,0.226,0.121,0.081,-,-,Yes
2021/11/10,05:30,0.155,0.142,0.220,0.218,0.224,0.121,0.079,-,-,Yes
2021/11/10,05:40,0.155,0.143,0.220,0.215,0.225,0.120,0.080,-,-,No
2021/11/10,05:50,0.154,0.142,0.220,0.217,0.223,0.119,0.079,-,-,No
2021/11/10,06:00,0.154,0.140,0.218,0.214,0.225,0.119,0.079,-,-,No
2021/11/10,06:10,0.154,0.141,0.219,0.215,0.222,0.119,0.078,-,-,No
2021/11/10,06:20,0.153,0.143,0.218,0.215,0.222,0.119,0.078,-,-,No
2021/11/10,06:30,0.154,0.140,0.219,0.215,0.222,0.118,0.077,-,-,No
2021/11/10,06:40,0.153,0.141,0.218,0.216,0.222,0.119,0.076,-,-,No
2021/11/10,06:50,0.153,0.140,0.219,0.215,0.224,0.118,0.077,-,-,No
2021/11/10,07:00,0.152,0.141,0.219,0.215,0.222,0.119,0.077,-,-,No
2021/11/10,07:10,0.154,0.140,0.217,0.216,0.222,0.119,0.077,-,-,No
2021/11/10,07:20,0.153,0.140,0.219,0.214,0.223,0.118,0.077,-,-,No
2021/11/10,07:30,0.153,0.141,0.219,0.216,0.222,0.118,0.076,-,-,No
2021/11/10,07:40,0.153,0.140,0.218,0.216,0.223,0.117,0.077,-,-,No
2021/11/10,07:50,0.153,0.140,0.219,0.215,0.222,0.119,0.077,-,-,No
2021/11/10,08:00,0.153,0.141,0.218,0.215,0.224,0.118,0.077,-,-,No
2021/11/10,08:10,0.153,0.140,0.219,0.213,0.221,0.119,0.077,-,-,No
2021/11/10,08:20,0.153,0.140,0.217,0.216,0.224,0.118,0.076,-,-,No
2021/11/10,08:30,0.152,0.140,0.218,0.214,0.222,0.118,0.077,-,-,No
2021/11/10,08:40,0.154,0.140,0.220,0.214,0.223,0.118,0.076,-,-,No
2021/11/10,08:50,0.152,0.139,0.217,0.214,0.222,0.119,0.077,-,-,No
2021/11/10,09:00,0.153,0.140,0.218,0.215,0.224,0.118,0.076,-,-,No
2021/11/10,09:10,0.153,0.140,0.219,0.215,0.221,0.118,0.077,-,-,No
2021/11/10,09:20,0.153,0.140,0.219,0.216,0.224,0.117,0.076,-,-,No
2021/11/10,09:30,0.152,0.141,0.217,0.215,0.221,0.119,0.077,-,-,No
2021/11/10,09:40,0.153,0.140,0.219,0.216,0.224,0.118,0.075,-,-,No
2021/11/10,09:50,0.153,0.140,0.218,0.215,0.222,0.118,0.076,-,-,No
2021/11/10,10:00,0.154,0.140,0.219,0.215,0.222,0.119,0.076,-,-,No
2021/11/10,10:10,0.153,0.140,0.218,0.215,0.224,0.118,0.077,-,-,No
2021/11/10,10:20,0.154,0.140,0.220,0.216,0.221,0.118,0.077,-,-,No
2021/11/10,10:30,0.153,0.140,0.218,0.214,0.223,0.119,0.077,-,-,No
2021/11/10,10:40,0.153,0.140,0.221,0.216,0.221,0.118,0.076,-,-,No
2021/11/10,10:50,0.153,0.140,0.219,0.214,0.223,0.119,0.076,-,-,No
2021/11/10,11:00,0.153,0.141,0.219,0.216,0.223,0.118,0.077,-,-,Yes
2021/11/10,11:10,0.153,0.140,0.219,0.215,0.221,0.118,0.076,-,-,Yes
2021/11/10,11:20,0.152,0.141,0.219,0.216,0.223,0.119,0.078,-,-,No
2021/11/10,11:30,0.154,0.140,0.221,0.216,0.222,0.118,0.077,-,-,No
2021/11/10,11:40,0.153,0.140,0.220,0.216,0.225,0.120,0.077,-,-,Yes
2021/11/10,11:50,0.155,0.140,0.220,0.217,0.223,0.119,0.077,-,-,No
2021/11/10,12:00,0.153,0.141,0.219,0.216,0.221,0.120,0.077,-,-,No
2021/11/10,12:10,0.154,0.141,0.220,0.218,0.224,0.118,0.077,-,-,No
2021/11/10,12:20,0.154,0.140,0.220,0.216,0.221,0.120,0.077,-,-,No
2021/11/10,12:30,0.154,0.141,0.220,0.217,0.224,0.119,0.078,-,-,No
2021/11/10,12:40,0.156,0.143,0.222,0.216,0.223,0.121,0.078,-,-,Yes
2021/11/10,12:50,0.159,0.146,0.225,0.220,0.227,0.123,0.080,-,-,Yes
2021/11/10,13:00,0.160,0.146,0.225,0.220,0.226,0.123,0.081,-,-,Yes
2021/11/10,13:10,0.159,0.147,0.224,0.220,0.226,0.124,0.081,-,-,Yes
2021/11/10,13:20,0.159,0.145,0.224,0.219,0.226,0.124,0.080,-,-,Yes
2021/11/10,13:30,0.157,0.145,0.222,0.219,0.226,0.123,0.080,-,-,No
2021/11/10,13:40,0.157,0.144,0.222,0.220,0.225,0.122,0.079,-,-,No
2021/11/10,13:50,0.155,0.142,0.221,0.218,0.224,0.121,0.079,-,-,No
2021/11/10,14:00,0.155,0.143,0.221,0.218,0.225,0.122,0.080,-,-,No
2021/11/10,14:10,0.154,0.142,0.221,0.217,0.223,0.122,0.078,-,-,No
2021/11/10,14:20,0.155,0.141,0.220,0.216,0.226,0.121,0.078,-,-,No
2021/11/10,14:30,0.155,0.141,0.221,0.216,0.223,0.121,0.077,-,-,Yes
2021/11/10,14:40,0.157,0.143,0.220,0.217,0.225,0.121,0.079,-,-,Yes
2021/11/10,14:50,0.160,0.150,0.224,0.219,0.229,0.126,0.083,-,-,Yes
2021/11/10,15:00,0.164,0.151,0.228,0.223,0.231,0.126,0.086,-,-,Yes
2021/11/10,15:10,0.164,0.151,0.228,0.224,0.233,0.127,0.086,-,-,Yes
2021/11/10,15:20,0.164,0.151,0.229,0.224,0.232,0.128,0.087,-,-,Yes
2021/11/10,15:30,0.163,0.152,0.227,0.223,0.234,0.128,0.087,-,-,Yes
2021/11/10,15:40,0.162,0.150,0.226,0.223,0.231,0.126,0.086,-,-,Yes
2021/11/10,15:50,0.161,0.148,0.225,0.221,0.231,0.125,0.084,-,-,Yes
2021/11/10,16:00,0.160,0.146,0.223,0.220,0.227,0.125,0.083,-,-,Yes
2021/11/10,16:10,0.157,0.146,0.222,0.217,0.226,0.124,0.083,-,-,No
2021/11/10,16:20,0.157,0.146,0.222,0.218,0.227,0.124,0.081,-,-,No
2021/11/10,16:30,0.155,0.143,0.220,0.218,0.225,0.122,0.081,-,-,No
2021/11/10,16:40,0.155,0.144,0.220,0.217,0.225,0.121,0.079,-,-,No
2021/11/10,16:50,0.154,0.143,0.220,0.214,0.225,0.121,0.080,-,-,No
2021/11/10,17:00,0.153,0.142,0.219,0.216,0.222,0.121,0.079,-,-,No
2021/11/10,17:10,0.154,0.142,0.221,0.216,0.224,0.121,0.078,-,-,No
2021/11/10,17:20,0.153,0.141,0.219,0.214,0.224,0.121,0.078,-,-,No
2021/11/10,17:30,0.153,0.140,0.217,0.216,0.223,0.120,0.077,-,-,No
2021/11/10,17:40,0.153,0.141,0.218,0.215,0.223,0.119,0.077,-,-,No
2021/11/10,17:50,0.153,0.140,0.218,0.215,0.223,0.120,0.077,-,-,No
2021/11/10,18:00,0.152,0.141,0.218,0.216,0.224,0.120,0.077,-,-,No
2021/11/10,18:10,0.153,0.140,0.219,0.214,0.223,0.120,0.077,-,-,No
2021/11/10,18:20,0.152,0.141,0.219,0.214,0.222,0.120,0.077,-,-,No
2021/11/10,18:30,0.152,0.140,0.219,0.215,0.222,0.119,0.077,-,-,No
2021/11/10,18:40,0.152,0.140,0.218,0.215,0.223,0.119,0.077,-,-,No
2021/11/10,18:50,0.152,0.140,0.219,0.215,0.222,0.119,0.077,-,-,No
2021/11/10,19:00,0.152,0.141,0.219,0.216,0.223,0.120,0.076,-,-,No
2021/11/10,19:10,0.152,0.140,0.217,0.215,0.221,0.120,0.077,-,-,No
2021/11/10,19:20,0.152,0.140,0.217,0.215,0.222,0.120,0.077,-,-,No
2021/11/10,19:30,0.152,0.139,0.218,0.215,0.223,0.120,0.076,-,-,No
2021/11/10,19:40,0.154,0.140,0.218,0.215,0.223,0.120,0.076,-,-,No
2021/11/10,19:50,0.153,0.140,0.218,0.216,0.222,0.120,0.078,-,-,No
2021/11/10,20:00,0.153,0.141,0.219,0.215,0.223,0.120,0.076,-,-,No
2021/11/10,20:10,0.153,0.140,0.220,0.217,0.222,0.119,0.077,-,-,No
2021/11/10,20:20,0.152,0.141,0.219,0.215,0.222,0.120,0.077,-,-,No
2021/11/10,20:30,0.152,0.140,0.219,0.215,0.223,0.120,0.076,-,-,No
2021/11/10,20:40,0.153,0.140,0.219,0.216,0.222,0.120,0.077,-,-,No
2021/11/10,20:50,0.153,0.140,0.220,0.216,0.224,0.120,0.077,-,-,No
2021/11/10,21:00,0.153,0.141,0.218,0.216,0.224,0.120,0.077,-,-,No
2021/11/10,21:10,0.153,0.140,0.219,0.216,0.222,0.120,0.078,-,-,No
2021/11/10,21:20,0.154,0.140,0.220,0.216,0.223,0.120,0.077,-,-,No
2021/11/10,21:30,0.153,0.141,0.219,0.216,0.222,0.120,0.077,-,-,No
2021/11/10,21:40,0.153,0.140,0.219,0.216,0.223,0.120,0.078,-,-,No
2021/11/10,21:50,0.153,0.141,0.220,0.217,0.222,0.120,0.077,-,-,No
2021/11/10,22:00,0.153,0.141,0.220,0.215,0.223,0.120,0.077,-,-,No
2021/11/10,22:10,0.153,0.140,0.219,0.216,0.222,0.120,0.077,-,-,No
2021/11/10,22:20,0.153,0.140,0.219,0.217,0.222,0.120,0.077,-,-,No
2021/11/10,22:30,0.153,0.141,0.219,0.216,0.223,0.120,0.077,-,-,No
2021/11/10,22:40,0.153,0.142,0.220,0.216,0.222,0.120,0.077,-,-,No
2021/11/10,22:50,0.154,0.141,0.220,0.216,0.223,0.120,0.076,-,-,No
2021/11/10,23:00,0.153,0.141,0.220,0.216,0.223,0.120,0.078,-,-,No
2021/11/10,23:10,0.153,0.141,0.221,0.216,0.223,0.121,0.077,-,-,No
2021/11/10,23:20,0.154,0.139,0.220,0.216,0.223,0.119,0.078,-,-,No
2021/11/10,23:30,0.153,0.140,0.219,0.216,0.223,0.120,0.077,-,-,No
2021/11/10,23:40,0.154,0.142,0.220,0.216,0.223,0.120,0.077,-,-,No
2021/11/10,23:50,0.153,0.141,0.220,0.215,0.223,0.120,0.078,-,-,No
